Location: Haliburton Scout Reserve
(45.0900°N, 78.3200°W)
Time: 05:25:02
(UTC-04:00)

DUCHIFAT 1 - Visible Passes

Search period start: 16 May 2022 00:00
Search period end: 26 May 2022 00:00
Orbit: 580 x 599 km, 98.0° (Epoch: 15 May)

Date Brightness Start Highest point End Pass type
(mag) Time Alt. Az. Time Alt. Az. Time Alt. Az.
16 May ? 03:43:01 10° NNE 03:47:10 77° ESE 03:49:26 26° S visible
17 May ? 03:50:56 10° NNE 03:55:05 87° WNW 03:57:30 24° SSW visible
18 May ? 02:26:05 10° ENE 02:27:00 11° E 02:27:55 10° ESE visible
18 May ? 03:58:51 10° N 04:02:58 71° WNW 04:05:32 22° SSW visible
19 May ? 02:33:03 10° ENE 02:34:58 13° E 02:36:55 10° ESE visible
19 May ? 04:06:47 10° N 04:10:50 58° WNW 04:13:34 20° SSW visible
20 May ? 02:40:25 10° NE 02:42:57 16° E 02:45:04 11° SE visible
20 May ? 04:14:43 10° N 04:18:42 48° WNW 04:21:36 17° SW visible
21 May ? 02:47:56 10° NE 02:50:53 19° E 02:53:05 13° SE visible
21 May ? 04:22:41 10° N 04:26:32 39° WNW 04:29:37 15° SW visible
22 May ? 02:55:32 10° NE 02:58:49 23° E 03:01:05 15° SE visible
22 May ? 04:30:39 10° N 04:34:22 33° WNW 04:37:37 12° SW visible
23 May ? 03:03:11 10° NE 03:06:44 27° E 03:09:05 16° SE visible
23 May ? 04:38:38 10° N 04:42:10 28° WNW 04:45:37 10° SW visible
24 May ? 03:10:53 10° NNE 03:14:37 32° E 03:17:04 18° SSE visible
24 May ? 04:46:39 10° NNW 04:49:57 23° WNW 04:53:14 10° WSW visible
25 May ? 03:18:36 10° NNE 03:22:30 39° E 03:25:03 19° SSE visible
25 May ? 04:54:42 10° NNW 04:57:43 20° WNW 05:00:44 10° WSW visible
